Torna al catalogo

STARLINK-30787

AttivoComunicazioniVLEO
NORAD 58128·PAYLOAD·🇺🇸 United States

Lanciato Oct 22, 2023 da Cape Canaveral Space Force Station

Loading…

Prossimi Passaggi (prossime 24 ore)

TLE

AggiornatoSource: CelesTrak SupGP

Epoca: Sep 15, 2026, 02:35 UTC

1 58128C 23162L   26258.10812500  .00017490  00000+0  63440-3 0  2586
2 58128  43.0008 139.5643 0001588 268.9827  92.5611 15.27522508    18

Traccia STARLINK-30787 in tempo reale con AllMySat

Download on the App Store